Starlink 31368

operational
NORAD ID: 58970 Int'l Des: 2024-031 Owner: SPXS Country: US Constellation: starlink
LEOCIRCULAR

About Starlink 31368

Description loading...

Live Position

Loading 3D Globe...

Upcoming Passes

Altitude History

Altitude vs Time

uPlot chart will show altitude changes over time

Two-Line Element Set

1 58970U 24031F 25303.88773674 -.00000394 00000-0 -11783-5 0 9995
2 58970 53.1602 179.3563 0001096 89.3393 270.7733 15.30197625 96668
Epoch: Oct 30, 2025 • Age: 22 hours

Current Status

Altitude 476.3 km
Velocity 7.63 km/s
Sub-Earth Point 28.50°N, 132.55°W
Launch Date Feb 15, 2024
Age 1.7 years
Type internet

Technical Details

Classification Payload
Mass 730.00 kg
Dry Mass 700.00 kg
Total Mass 730.00 kg
Length 0.30 m
Diameter 4.10 m
Span 29.00 m
Shape Box + pan
Manufacturer SPXS
Bus Type Starlink V2M
Phase Status In Orbit
Owner/State SPXS/US

Large Constellations

Loading constellations...